Home   Weather   Chengdu   Past weeks

Flag for China Past Weather in Chengdu, Sichuan, China — Yesterday and Last 2 Weeks

Now
91 °F

Passing clouds.


Feels Like: 103 °F
Forecast: 78 / 97 °F
Wind: 3 mph from South

Location: Chengdu Airport

Current Time: Aug 14, 2018 at 5:04:18 pm

Latest Report: Aug 14, 2018 at 4:00 pm


Visibility: N/A

Pressure: 29.62 "Hg

Humidity: 59%

Dew Point: 75 °F

Location of ChengduLocation

Past Weather in Chengdu — Graph

°F

Chengdu Temperature Yesterday

Maximum temperature yesterday: 91 °F (at 4:00 pm)
Minimum temperature yesterday: 75 °F (at 3:00 am)
Average temperature yesterday: 82 °F

High & Low Weather Summary for the Past Weeks

 TemperatureHumidityPressure
High93 °F (Aug 6, 3:00 pm)100% (Jul 30, 10:00 pm)29.80 "Hg (Jul 30, 10:00 pm)
Low73 °F (Jul 31, 1:00 am)53% (Aug 6, 4:00 pm)29.56 "Hg (Aug 11, 6:00 pm)
Average80 °F86%29.69 "Hg
* Reported Jul 30 4:00 pm — Aug 14 4:00 pm, Chengdu. Weather by CustomWeather, © 2018

Note: Actual official high and low records may vary slightly from our data, if they occured in-between our weather recording intervals... More about our weather records

Advertising

Chengdu Weather History for the Previous 24 Hours

Scroll right to see more
 ConditionsComfort  
Time TempWeatherWind HumidityBarometerVisibility
4:00 pm
Tue, Aug 14
91 °FPassing clouds.3 mph59%29.62 "HgN/A
3:00 pm91 °FPassing clouds.3 mph56%29.65 "HgN/A
2:00 pm93 °FPassing clouds.3 mph53%29.65 "HgN/A
1:00 pm90 °FSunny.1 mph59%29.68 "Hg10 mi
12:00 pm84 °FPassing clouds.3 mph74%29.71 "HgN/A
11:00 am84 °FPassing clouds.3 mph74%29.71 "HgN/A
10:00 am84 °FPassing clouds.3 mph74%29.71 "HgN/A
9:00 am84 °FSunny.No wind74%29.68 "Hg10 mi
8:00 am81 °FSunny.1 mph84%29.68 "Hg10 mi
7:00 am75 °FSunny.1 mph100%29.68 "Hg10 mi
6:00 am75 °FClear.1 mph94%29.65 "Hg10 mi
5:00 am77 °FClear.1 mph89%29.65 "Hg10 mi
4:00 am77 °FClear.No wind89%29.65 "Hg10 mi
3:00 am77 °FClear.1 mph89%29.65 "Hg10 mi
2:00 am77 °FClear.1 mph89%29.65 "Hg10 mi
1:00 am79 °FClear.1 mph89%29.65 "Hg10 mi
12:00 am79 °FClear.1 mph89%29.68 "Hg10 mi
11:00 pm
Mon, Aug 13
81 °FPassing clouds.3 mph79%29.65 "HgN/A
10:00 pm81 °FClear.1 mph79%29.65 "Hg10 mi
9:00 pm82 °FClear.3 mph84%29.62 "Hg10 mi
8:00 pm84 °FPassing clouds.3 mph74%29.62 "HgN/A
7:00 pm86 °FPassing clouds.6 mph70%29.59 "HgN/A
6:00 pm90 °FPassing clouds.1 mph59%29.59 "HgN/A
5:00 pm90 °FPassing clouds.1 mph59%29.59 "HgN/A
Weather by CustomWeather, © 2018

See weather overview